TimeCST,TemperatureF,Dew PointF,Humidity,Sea Level PressureIn,VisibilityMPH,Wind Direction,Wind SpeedMPH,Gust SpeedMPH,PrecipitationIn,Events,Conditions,WindDirDegrees,DateUTC
6:00 AM,68,60,69,,6,East,12.7,,,,Clear,100,2013-04-21 12:00:00
6:00 AM,68.0,60.8,78,30.07,-9999.0,East,12.7,-,N/A,,Clear,100,2013-04-21 12:00:00
7:00 AM,71.6,60.8,69,30.09,-9999.0,ESE,13.8,-,N/A,,Clear,110,2013-04-21 13:00:00
8:00 AM,75.2,60.8,61,30.10,6.2,ENE,15.0,-,N/A,,Scattered Clouds,70,2013-04-21 14:00:00
9:00 AM,78,62,48,,6,East,11.5,,,,Scattered Clouds,100,2013-04-21 15:00:00
9:00 AM,78.8,60.8,54,30.11,6.2,East,11.5,23.0,N/A,,Partly Cloudy,100,2013-04-21 15:00:00
10:00 AM,78.8,60.8,54,30.12,6.2,ENE,13.8,-,N/A,,Scattered Clouds,70,2013-04-21 16:00:00
11:00 AM,80.6,62.6,54,30.10,6.2,East,11.5,-,N/A,,Scattered Clouds,80,2013-04-21 17:00:00
12:00 PM,81,63,44,,6,ENE,9.2,,,,Mostly Cloudy,70,2013-04-21 18:00:00
12:00 PM,80.6,62.6,54,30.07,6.2,ENE,9.2,-,N/A,,Mostly Cloudy,70,2013-04-21 18:00:00
12:05 PM,80.6,62.6,54,30.07,6.2,WSW,9.2,-,N/A,,Mostly Cloudy,240,2013-04-21 18:05:00
12:23 PM,78.8,64.4,61,30.06,6.2,East,8.1,-,N/A,Rain,Rain,100,2013-04-21 18:23:00
12:37 PM,73.4,66.2,78,30.07,5.6,SW,16.1,-,N/A,Rain-Thunderstorm,Thunderstorms and Rain,230,2013-04-21 18:37:00
12:39 PM,73.4,66.2,78,30.07,2.5,SW,16.1,-,N/A,Rain-Thunderstorm,Thunderstorms and Rain,230,2013-04-21 18:39:00
12:45 PM,69.8,64.4,83,30.07,2.5,WSW,11.5,-,N/A,Rain-Thunderstorm,Heavy Thunderstorms and Rain,240,2013-04-21 18:45:00
1:00 PM,69.8,64.4,83,30.07,2.5,West,6.9,-,N/A,Rain-Thunderstorm,Heavy Thunderstorms and Rain,280,2013-04-21 19:00:00
1:10 PM,68.0,62.6,83,30.06,5.0,West,6.9,-,N/A,Rain-Thunderstorm,Thunderstorms and Rain,280,2013-04-21 19:10:00
2:00 PM,73.4,62.6,69,30.04,6.2,SSE,6.9,-,N/A,,Mostly Cloudy,150,2013-04-21 20:00:00
3:00 PM,72,63,65,,6,East,9.2,,,Rain,Light Rain,100,2013-04-21 21:00:00
3:00 PM,71.6,62.6,73,30.04,6.2,East,9.2,-,N/A,Rain,Light Rain,100,2013-04-21 21:00:00
4:00 PM,69.8,62.6,78,30.03,6.2,ESE,8.1,-,N/A,,Mostly Cloudy,110,2013-04-21 22:00:00
5:00 PM,71.6,62.6,73,30.04,6.2,East,8.1,-,N/A,,Mostly Cloudy,100,2013-04-21 23:00:00
6:00 PM,72,61,59,,6,East,5.8,,,,,100,2013-04-22 00:00:00
6:00 PM,71.6,60.8,69,30.06,6.2,East,5.8,-,N/A,,Mostly Cloudy,100,2013-04-22 00:00:00